Time,TemperatureF,DewpointF,PressureIn,WindDirection,WindDirectionDegrees,WindSpeedMPH,WindSpeedGustMPH,Humidity,HourlyPrecipIn,Conditions,Clouds,dailyrainin,SoftwareType,DateUTC
2013-01-14 00:02:00,39.0,35.0,-100.00,ESE,115,8.0,15.0,87,-99.99,,,-99.99,,2013-01-14 09:02:00,
2013-01-14 00:12:00,39.0,35.0,-100.00,ESE,115,8.0,15.0,87,-99.99,,,-99.99,,2013-01-14 09:12:00,
2013-01-14 00:22:00,39.0,35.0,-100.00,ESE,120,6.0,17.0,87,-99.99,,,-99.99,,2013-01-14 09:22:00,
2013-01-14 00:33:00,39.0,35.0,-100.00,ESE,120,6.0,17.0,87,-99.99,,,-99.99,,2013-01-14 09:33:00,
2013-01-14 00:42:00,39.0,35.0,-100.00,ESE,120,6.0,17.0,87,-99.99,,,-99.99,,2013-01-14 09:42:00,
2013-01-14 00:52:00,39.0,36.0,-100.00,ESE,110,11.0,22.0,88,-99.99,,,-99.99,,2013-01-14 09:52:00,
2013-01-14 01:02:00,39.0,36.0,-100.00,ESE,110,11.0,22.0,88,-99.99,,,-99.99,,2013-01-14 10:02:00,
2013-01-14 01:12:00,39.0,36.0,-100.00,ESE,110,11.0,22.0,88,-99.99,,,-99.99,,2013-01-14 10:12:00,
2013-01-14 01:22:00,39.0,36.0,-100.00,ESE,105,9.0,17.0,88,-99.99,,,-99.99,,2013-01-14 10:22:00,
2013-01-14 01:32:00,39.0,36.0,-100.00,ESE,105,9.0,17.0,88,-99.99,,,-99.99,,2013-01-14 10:32:00,
2013-01-14 01:42:00,39.0,36.0,-100.00,ESE,105,9.0,17.0,88,-99.99,,,-99.99,,2013-01-14 10:42:00,
2013-01-14 01:52:00,39.0,36.0,-100.00,ESE,110,7.0,20.0,87,-99.99,,,-99.99,,2013-01-14 10:52:00,
2013-01-14 02:02:00,39.0,36.0,-100.00,ESE,110,7.0,20.0,87,-99.99,,,-99.99,,2013-01-14 11:02:00,
2013-01-14 02:11:00,39.0,36.0,-100.00,ESE,110,7.0,20.0,87,-99.99,,,-99.99,,2013-01-14 11:11:00,
2013-01-14 02:22:00,39.0,36.0,-100.00,ESE,110,11.0,22.0,87,-99.99,,,-99.99,,2013-01-14 11:22:00,
2013-01-14 02:32:00,39.0,36.0,-100.00,ESE,110,11.0,22.0,87,-99.99,,,-99.99,,2013-01-14 11:32:00,
2013-01-14 02:42:00,39.0,36.0,-100.00,ESE,110,11.0,22.0,87,-99.99,,,-99.99,,2013-01-14 11:42:00,
2013-01-14 02:53:00,39.0,36.0,-100.00,ESE,120,12.0,17.0,87,-99.99,,,-99.99,,2013-01-14 11:53:00,
2013-01-14 03:02:00,39.0,36.0,-100.00,ESE,120,12.0,17.0,87,-99.99,,,-99.99,,2013-01-14 12:02:00,
2013-01-14 03:12:00,39.0,36.0,-100.00,ESE,120,12.0,17.0,87,-99.99,,,-99.99,,2013-01-14 12:12:00,
2013-01-14 03:22:00,40.0,36.0,-100.00,ESE,110,9.0,17.0,87,-99.99,,,-99.99,,2013-01-14 12:22:00,
2013-01-14 03:33:00,40.0,36.0,-100.00,ESE,110,9.0,17.0,87,-99.99,,,-99.99,,2013-01-14 12:33:00,
2013-01-14 03:42:00,40.0,36.0,-100.00,ESE,110,9.0,17.0,87,-99.99,,,-99.99,,2013-01-14 12:42:00,
2013-01-14 03:52:00,40.0,36.0,-100.00,ESE,115,7.0,16.0,87,-99.99,,,-99.99,,2013-01-14 12:52:00,
2013-01-14 04:03:00,40.0,36.0,-100.00,ESE,115,7.0,16.0,87,-99.99,,,-99.99,,2013-01-14 13:03:00,
2013-01-14 04:12:00,40.0,36.0,-100.00,ESE,115,7.0,16.0,87,-99.99,,,-99.99,,2013-01-14 13:12:00,
2013-01-14 04:22:00,40.0,36.0,-100.00,SE,130,9.0,21.0,87,-99.99,,,-99.99,,2013-01-14 13:22:00,
2013-01-14 04:33:00,40.0,36.0,-100.00,SE,130,9.0,21.0,87,-99.99,,,-99.99,,2013-01-14 13:33:00,
2013-01-14 04:43:00,40.0,36.0,-100.00,SE,130,9.0,21.0,87,-99.99,,,-99.99,,2013-01-14 13:43:00,
2013-01-14 04:52:00,40.0,36.0,-100.00,SE,125,7.0,12.0,87,-99.99,,,-99.99,,2013-01-14 13:52:00,
2013-01-14 05:02:00,40.0,36.0,-100.00,SE,125,7.0,12.0,87,-99.99,,,-99.99,,2013-01-14 14:02:00,
2013-01-14 05:12:00,40.0,36.0,-100.00,SE,125,7.0,12.0,87,-99.99,,,-99.99,,2013-01-14 14:12:00,
2013-01-14 05:22:00,40.0,37.0,-100.00,ESE,115,6.0,11.0,88,-99.99,,,-99.99,,2013-01-14 14:22:00,
2013-01-14 05:33:00,40.0,37.0,-100.00,ESE,115,6.0,11.0,88,-99.99,,,-99.99,,2013-01-14 14:33:00,
2013-01-14 05:42:00,40.0,37.0,-100.00,ESE,115,6.0,11.0,88,-99.99,,,-99.99,,2013-01-14 14:42:00,
2013-01-14 05:52:00,40.0,37.0,-100.00,East,90,4.0,11.0,88,-99.99,,,-99.99,,2013-01-14 14:52:00,
2013-01-14 06:03:00,40.0,37.0,-100.00,East,90,4.0,11.0,88,-99.99,,,-99.99,,2013-01-14 15:03:00,
2013-01-14 06:12:00,40.0,37.0,-100.00,East,90,4.0,11.0,88,-99.99,,,-99.99,,2013-01-14 15:12:00,
2013-01-14 06:23:00,40.0,37.0,-100.00,SE,125,6.0,9.0,88,-99.99,,,-99.99,,2013-01-14 15:23:00,
2013-01-14 06:33:00,40.0,37.0,-100.00,SE,125,6.0,9.0,88,-99.99,,,-99.99,,2013-01-14 15:33:00,
2013-01-14 06:43:00,40.0,37.0,-100.00,SE,125,6.0,9.0,88,-99.99,,,-99.99,,2013-01-14 15:43:00,
2013-01-14 06:52:00,40.0,37.0,-100.00,ESE,105,5.0,14.0,88,-99.99,,,-99.99,,2013-01-14 15:52:00,
2013-01-14 07:02:00,40.0,37.0,-100.00,ESE,105,5.0,14.0,88,-99.99,,,-99.99,,2013-01-14 16:02:00,
2013-01-14 07:12:00,40.0,37.0,-100.00,ESE,105,5.0,14.0,88,-99.99,,,-99.99,,2013-01-14 16:12:00,
2013-01-14 07:22:00,39.0,36.0,-100.00,East,85,3.0,9.0,88,-99.99,,,-99.99,,2013-01-14 16:22:00,
2013-01-14 07:33:00,39.0,36.0,-100.00,East,85,3.0,9.0,88,-99.99,,,-99.99,,2013-01-14 16:33:00,
2013-01-14 07:43:00,39.0,36.0,-100.00,East,85,3.0,9.0,88,-99.99,,,-99.99,,2013-01-14 16:43:00,
2013-01-14 07:52:00,39.0,36.0,-100.00,East,85,3.0,9.0,88,-99.99,,,-99.99,,2013-01-14 16:52:00,
2013-01-14 09:53:00,40.0,37.0,-100.00,ESE,110,6.0,11.0,88,-99.99,,,-99.99,,2013-01-14 18:53:00,
2013-01-14 10:03:00,40.0,37.0,-100.00,ESE,110,6.0,11.0,88,-99.99,,,-99.99,,2013-01-14 19:03:00,
2013-01-14 10:12:00,40.0,37.0,-100.00,ESE,110,6.0,11.0,88,-99.99,,,-99.99,,2013-01-14 19:12:00,
2013-01-14 10:22:00,40.0,37.0,-100.00,ESE,115,3.0,8.0,88,-99.99,,,-99.99,,2013-01-14 19:22:00,
2013-01-14 10:33:00,40.0,37.0,-100.00,ESE,115,3.0,8.0,88,-99.99,,,-99.99,,2013-01-14 19:33:00,
2013-01-14 10:42:00,40.0,37.0,-100.00,ESE,115,3.0,8.0,88,-99.99,,,-99.99,,2013-01-14 19:42:00,
2013-01-14 10:52:00,40.0,37.0,-100.00,ESE,115,6.0,11.0,88,-99.99,,,-99.99,,2013-01-14 19:52:00,
2013-01-14 11:03:00,40.0,37.0,-100.00,ESE,115,6.0,11.0,88,-99.99,,,-99.99,,2013-01-14 20:03:00,
2013-01-14 11:12:00,40.0,37.0,-100.00,ESE,115,6.0,11.0,88,-99.99,,,-99.99,,2013-01-14 20:12:00,
2013-01-14 11:22:00,41.0,38.0,-100.00,East,95,4.0,11.0,88,-99.99,,,-99.99,,2013-01-14 20:22:00,
2013-01-14 11:33:00,41.0,38.0,-100.00,East,95,4.0,11.0,88,-99.99,,,-99.99,,2013-01-14 20:33:00,
2013-01-14 11:42:00,41.0,38.0,-100.00,East,95,4.0,11.0,88,-99.99,,,-99.99,,2013-01-14 20:42:00,
2013-01-14 11:52:00,41.0,38.0,-100.00,ESE,120,6.0,10.0,88,-99.99,,,-99.99,,2013-01-14 20:52:00,
2013-01-14 12:02:00,41.0,38.0,-100.00,ESE,120,6.0,10.0,88,-99.99,,,-99.99,,2013-01-14 21:02:00,
2013-01-14 12:12:00,41.0,38.0,-100.00,ESE,120,6.0,10.0,88,-99.99,,,-99.99,,2013-01-14 21:12:00,
2013-01-14 12:22:00,41.0,38.0,-100.00,ESE,110,5.0,11.0,88,-99.99,,,-99.99,,2013-01-14 21:22:00,
2013-01-14 12:33:00,41.0,38.0,-100.00,ESE,110,5.0,11.0,88,-99.99,,,-99.99,,2013-01-14 21:33:00,
2013-01-14 12:42:00,41.0,38.0,-100.00,ESE,110,5.0,11.0,88,-99.99,,,-99.99,,2013-01-14 21:42:00,
2013-01-14 12:53:00,41.0,38.0,-100.00,ESE,110,7.0,11.0,88,-99.99,,,-99.99,,2013-01-14 21:53:00,
2013-01-14 13:02:00,41.0,38.0,-100.00,ESE,110,7.0,11.0,88,-99.99,,,-99.99,,2013-01-14 22:02:00,
2013-01-14 13:12:00,41.0,38.0,-100.00,ESE,110,7.0,11.0,88,-99.99,,,-99.99,,2013-01-14 22:12:00,
2013-01-14 13:22:00,41.0,38.0,-100.00,ESE,110,6.0,9.0,88,-99.99,,,-99.99,,2013-01-14 22:22:00,
2013-01-14 13:32:00,41.0,38.0,-100.00,ESE,110,6.0,9.0,88,-99.99,,,-99.99,,2013-01-14 22:32:00,
2013-01-14 13:42:00,41.0,38.0,-100.00,ESE,110,6.0,9.0,88,-99.99,,,-99.99,,2013-01-14 22:42:00,
2013-01-14 13:52:00,41.0,38.0,-100.00,ESE,105,6.0,12.0,88,-99.99,,,-99.99,,2013-01-14 22:52:00,
2013-01-14 14:02:00,41.0,38.0,-100.00,ESE,105,6.0,12.0,88,-99.99,,,-99.99,,2013-01-14 23:02:00,
2013-01-14 14:12:00,41.0,38.0,-100.00,ESE,105,6.0,12.0,88,-99.99,,,-99.99,,2013-01-14 23:12:00,
2013-01-14 14:22:00,41.0,38.0,-100.00,ESE,115,4.0,10.0,88,-99.99,,,-99.99,,2013-01-14 23:22:00,
2013-01-14 14:33:00,41.0,38.0,-100.00,ESE,115,4.0,10.0,88,-99.99,,,-99.99,,2013-01-14 23:33:00,
2013-01-14 14:42:00,41.0,38.0,-100.00,ESE,115,4.0,10.0,88,-99.99,,,-99.99,,2013-01-14 23:42:00,
2013-01-14 14:52:00,40.0,37.0,-100.00,ENE,70,0.0,12.0,88,-99.99,,,-99.99,,2013-01-14 23:52:00,
2013-01-14 15:02:00,40.0,37.0,-100.00,ENE,70,0.0,12.0,88,-99.99,,,-99.99,,2013-01-15 00:02:00,
2013-01-14 15:12:00,40.0,37.0,-100.00,ENE,70,0.0,12.0,88,-99.99,,,-99.99,,2013-01-15 00:12:00,
2013-01-14 15:22:00,39.0,36.0,-100.00,ESE,110,1.0,4.0,88,-99.99,,,-99.99,,2013-01-15 00:22:00,
2013-01-14 15:32:00,39.0,36.0,-100.00,ESE,110,1.0,4.0,88,-99.99,,,-99.99,,2013-01-15 00:32:00,
2013-01-14 15:43:00,39.0,36.0,-100.00,ESE,110,1.0,4.0,88,-99.99,,,-99.99,,2013-01-15 00:43:00,
2013-01-14 15:52:00,40.0,37.0,-100.00,NE,45,0.0,11.0,89,-99.99,,,-99.99,,2013-01-15 00:52:00,
2013-01-14 16:02:00,40.0,37.0,-100.00,NE,45,0.0,11.0,89,-99.99,,,-99.99,,2013-01-15 01:02:00,
2013-01-14 16:12:00,40.0,37.0,-100.00,NE,45,0.0,11.0,89,-99.99,,,-99.99,,2013-01-15 01:12:00,
2013-01-14 16:22:00,39.0,36.0,-100.00,ESE,110,1.0,7.0,89,-99.99,,,-99.99,,2013-01-15 01:22:00,
2013-01-14 16:32:00,39.0,36.0,-100.00,ESE,110,1.0,7.0,89,-99.99,,,-99.99,,2013-01-15 01:32:00,
2013-01-14 16:42:00,39.0,36.0,-100.00,ESE,110,1.0,7.0,89,-99.99,,,-99.99,,2013-01-15 01:42:00,
2013-01-14 16:52:00,40.0,37.0,-100.00,East,100,1.0,11.0,89,-99.99,,,-99.99,,2013-01-15 01:52:00,
2013-01-14 17:02:00,40.0,37.0,-100.00,East,100,1.0,11.0,89,-99.99,,,-99.99,,2013-01-15 02:02:00,
2013-01-14 17:12:00,40.0,37.0,-100.00,East,100,1.0,11.0,89,-99.99,,,-99.99,,2013-01-15 02:12:00,
2013-01-14 17:22:00,41.0,38.0,-100.00,ESE,120,6.0,11.0,89,-99.99,,,-99.99,,2013-01-15 02:22:00,
2013-01-14 17:32:00,41.0,38.0,-100.00,ESE,120,6.0,11.0,89,-99.99,,,-99.99,,2013-01-15 02:32:00,
2013-01-14 17:42:00,41.0,38.0,-100.00,ESE,120,6.0,11.0,89,-99.99,,,-99.99,,2013-01-15 02:42:00,
2013-01-14 17:52:00,40.0,37.0,-100.00,NE,45,0.0,4.0,89,-99.99,,,-99.99,,2013-01-15 02:52:00,
2013-01-14 18:02:00,40.0,37.0,-100.00,NE,45,0.0,4.0,89,-99.99,,,-99.99,,2013-01-15 03:02:00,
2013-01-14 18:12:00,40.0,37.0,-100.00,NE,45,0.0,4.0,89,-99.99,,,-99.99,,2013-01-15 03:12:00,
2013-01-14 18:22:00,39.0,36.0,-100.00,ENE,60,0.0,4.0,89,-99.99,,,-99.99,,2013-01-15 03:22:00,
2013-01-14 18:33:00,39.0,36.0,-100.00,ENE,60,0.0,4.0,89,-99.99,,,-99.99,,2013-01-15 03:33:00,
2013-01-14 18:42:00,39.0,36.0,-100.00,ENE,60,0.0,4.0,89,-99.99,,,-99.99,,2013-01-15 03:42:00,
2013-01-14 18:52:00,39.0,36.0,-100.00,NNE,25,1.0,4.0,89,-99.99,,,-99.99,,2013-01-15 03:52:00,
2013-01-14 19:02:00,39.0,36.0,-100.00,NNE,25,1.0,4.0,89,-99.99,,,-99.99,,2013-01-15 04:02:00,
2013-01-14 19:12:00,39.0,36.0,-100.00,NNE,25,1.0,4.0,89,-99.99,,,-99.99,,2013-01-15 04:12:00,
2013-01-14 19:22:00,39.0,36.0,-100.00,ESE,105,1.0,7.0,89,-99.99,,,-99.99,,2013-01-15 04:22:00,
2013-01-14 19:32:00,39.0,36.0,-100.00,ESE,105,1.0,7.0,89,-99.99,,,-99.99,,2013-01-15 04:32:00,
2013-01-14 19:42:00,39.0,36.0,-100.00,ESE,105,1.0,7.0,89,-99.99,,,-99.99,,2013-01-15 04:42:00,
2013-01-14 19:52:00,40.0,37.0,-100.00,SE,125,2.0,9.0,89,-99.99,,,-99.99,,2013-01-15 04:52:00,
2013-01-14 20:03:00,40.0,37.0,-100.00,SE,125,2.0,9.0,89,-99.99,,,-99.99,,2013-01-15 05:03:00,
2013-01-14 20:12:00,40.0,37.0,-100.00,SE,125,2.0,9.0,89,-99.99,,,-99.99,,2013-01-15 05:12:00,
2013-01-14 20:22:00,39.0,36.0,-100.00,ESE,115,4.0,6.0,89,-99.99,,,-99.99,,2013-01-15 05:22:00,
2013-01-14 20:33:00,39.0,36.0,-100.00,ESE,115,4.0,6.0,89,-99.99,,,-99.99,,2013-01-15 05:33:00,
2013-01-14 20:42:00,39.0,36.0,-100.00,ESE,115,4.0,6.0,89,-99.99,,,-99.99,,2013-01-15 05:42:00,
2013-01-14 20:52:00,40.0,37.0,-100.00,ESE,110,3.0,6.0,89,-99.99,,,-99.99,,2013-01-15 05:52:00,
2013-01-14 21:02:00,40.0,37.0,-100.00,ESE,110,3.0,6.0,89,-99.99,,,-99.99,,2013-01-15 06:02:00,
2013-01-14 21:12:00,40.0,37.0,-100.00,ESE,110,3.0,6.0,89,-99.99,,,-99.99,,2013-01-15 06:12:00,
2013-01-14 21:22:00,40.0,37.0,-100.00,ESE,110,7.0,11.0,89,-99.99,,,-99.99,,2013-01-15 06:22:00,
2013-01-14 21:32:00,40.0,37.0,-100.00,ESE,110,7.0,11.0,89,-99.99,,,-99.99,,2013-01-15 06:32:00,
2013-01-14 21:42:00,40.0,37.0,-100.00,ESE,110,7.0,11.0,89,-99.99,,,-99.99,,2013-01-15 06:42:00,
2013-01-14 21:52:00,40.0,38.0,-100.00,ESE,120,6.0,12.0,89,-99.99,,,-99.99,,2013-01-15 06:52:00,
2013-01-14 22:02:00,40.0,38.0,-100.00,ESE,120,6.0,12.0,89,-99.99,,,-99.99,,2013-01-15 07:02:00,
2013-01-14 22:12:00,40.0,38.0,-100.00,ESE,120,6.0,12.0,89,-99.99,,,-99.99,,2013-01-15 07:12:00,
2013-01-14 22:22:00,40.0,37.0,-100.00,ESE,115,5.0,7.0,89,-99.99,,,-99.99,,2013-01-15 07:22:00,
2013-01-14 22:32:00,40.0,37.0,-100.00,ESE,115,5.0,7.0,89,-99.99,,,-99.99,,2013-01-15 07:32:00,
2013-01-14 22:42:00,40.0,37.0,-100.00,ESE,115,5.0,7.0,89,-99.99,,,-99.99,,2013-01-15 07:42:00,
2013-01-14 22:52:00,40.0,38.0,-100.00,ESE,105,6.0,11.0,89,-99.99,,,-99.99,,2013-01-15 07:52:00,
2013-01-14 23:02:00,40.0,38.0,-100.00,ESE,105,6.0,11.0,89,-99.99,,,-99.99,,2013-01-15 08:02:00,
2013-01-14 23:12:00,40.0,38.0,-100.00,ESE,105,6.0,11.0,89,-99.99,,,-99.99,,2013-01-15 08:12:00,
2013-01-14 23:22:00,40.0,38.0,-100.00,ESE,115,7.0,14.0,89,-99.99,,,-99.99,,2013-01-15 08:22:00,
2013-01-14 23:32:00,40.0,38.0,-100.00,ESE,115,7.0,14.0,89,-99.99,,,-99.99,,2013-01-15 08:32:00,
2013-01-14 23:42:00,40.0,38.0,-100.00,ESE,115,7.0,14.0,89,-99.99,,,-99.99,,2013-01-15 08:42:00,
2013-01-14 23:52:00,40.0,38.0,-100.00,SE,125,7.0,16.0,89,-99.99,,,-99.99,,2013-01-15 08:52:00,